Showing default

GEO-KOMPSAT-2B, 45246

Orbit data source: Space-Track

GEO-KOMPSAT-2B, 45246 is a payload satellite owned by KARI (KR) in GEO that was launched on Tue, 18 Feb 2020 UTC via an ARIANE 5ECA+ launch vehicle from the French Guiana (FRGUI). Payload-class satellites include a variety of spacecraft equipped with specific instruments for various scientific and technological missions. These include communications satellites like Starlink; space stations such as the ISS; scientific satellites like the Hubble; Earth observation satellites from companies like Planet Labs, Umbra, and HawkEye 360; GPS; miniature CubeSats for education and research; and military/defense satellites.

Not visible in the next 10 days
Identifier
45246, 2020-013B
Orbit
GEO
Country
Flag of KRKR / SKOR
Related business
Manufacturer
KARI
Mission
Operational Civil Weather
Bus & Motor
GK2, S400?
Mass
3,379 kg wet, ~2,500 kg dry
Launch date (UTC)
2020-02-18 (7 years ago)
Launch vehicle
ARIANE 5ECA+
Launch site
French Guiana (FRGUI)
Object type
Payload
Rocket body
Debris
Shape & HBR
Box + 1 Pan, 2.5 m
Radar Cross Section
15.287 m², Large (>1 m²)

Expand to show TLE details & history
Last TLE update: 6 hours ago

TLE from 6 hours ago
0 GEO-KOMPSAT-2B
1 45246U 20013B   26258.52714772 -.00000350  00000-0  00000+0 0  9993
2 45246   0.0524 318.8337 0001095 268.9727  84.7306  1.00272203 24183
Epoch: 2026-09-15T12:39Z
TLE epoch observation values (Epoch: 2026-09-15T12:39:05.563Z)
Latitude
0.0172°
Longitude
128.2776°
Altitude
35,785.562 km
Speed
3.075 km/s
True Right ascension
20h 50m 10s
True Declination
0° 01' 02"
Sunlit
Object was in daylight at epoch
Visualization orbit readout
Latitude
Unknown
Longitude
Unknown
Altitude
Unknown
Speed
Unknown
Apparent Right ascension
Unknown
Apparent Declination
Unknown
Sunlit
N/A
Visualization observer readout
Local Sidereal Time
11:21:15
Azimuth
Unknown
Elevation
Unknown
Doppler factor
Unknown
Orbital elements
Apogee altitude
35,792.165 km
Perigee altitude
35,782.931 km
Semi-major axis
42,165.685 km
Eccentricity
0.00011
Inclination
0.0524°
RAAN
318.8337°
Arg. of periapsis
268.9727°
True anomaly
84.74309°
Mean anomaly
84.7306°
Eccentric anomaly
84.73685°
Mean motion
0.25067 °/min
Orbital period
1,436.14 mins
BSTAR
0
Loading maneuver chart data...
Computing Atmospheric mass density...
Loading historical data...
Loading historical data...
Loading historical data...
Loading historical data...
Loading historical data...
Loading historical data...
Loading historical data...
Other satellites on launch #13 in the year 2020 (2020-02-18 UTC)

Documentation

Showing up to 5 results
|